Location: *
(49.0044°N, 9.5056°E)
Time: 11:45:25
(UTC+00:00)

Cosmos 2227 Rocket - Pass Details

Date: 22 September 2019
Orbit: 837 x 847 km, 71.0° (Epoch: 17 October)

Event Time Altitude Azimuth Distance (km) Brightness Sun altitude
Rises 19:46:02 0° 224° (SW) 3,387 5.5 -23.6°
Reaches altitude 10° 19:48:33 10° 230° (SW) 2,458 4.8 -23.9°
Maximum altitude 19:54:01 49° 305° (NW) 1,078 3.1 -24.7°
Drops below altitude 10° 19:59:32 10° 21° (NNE) 2,478 4.8 -25.5°
Sets 20:02:05 0° 27° (NNE) 3,418 5.5 -25.8°
